Livingston, MT

10:18 PM MST on January 16, 2018 (GMT -0700)
Mission

Weather History for KLVM - September, 2013

Change the Weather History Date:

Saturday, September 28, 2013

  Actual Average Record
Temperature  
Mean Temperature 55 °F 51 °F  
Max Temperature 62 °F 66 °F 89 °F (2010)
Min Temperature 47 °F 36 °F 21 °F (1984)
Degree Days  
Heating Degree Days 10 14  
Month to date heating degree days 151 261  
Since 1 July heating degree days 151 379  
Cooling Degree Days 0 0  
Month to date cooling degree days 56 13  
Year to date cooling degree days 495 228  
Growing Degree Days 5 (Base 50)    
Moisture  
Dew Point 31 °F    
Average Humidity 42    
Maximum Humidity 50    
Minimum Humidity 34    
Precipitation  
Precipitation 0.00 in 0.04 in 0.39 in (1983)
Month to date precipitation 2.09 1.12  
Year to date precipitation 9.61 12.35  
Sea Level Pressure  
Sea Level Pressure 29.85 in    
Wind  
Wind Speed 30 mph (SW)    
Max Wind Speed 52 mph    
Max Gust Speed 63 mph    
Visibility 10 miles    
Events      
T = Trace of Precipitation, MM = Missing Value Source: NWS Daily Summary

Daily Weather History Graph

Daily Weather History Graph

Search for Another Location

Airport or City:

Trip Planner

Search our weather history database for the weather conditions in past years. The results will help you decide how hot, cold, wet, or windy it might be!

Date:

Astronomy

Sep. 28, 2013 Rise Set
Actual Time 7:16 AM MDT 7:07 PM MDT
Civil Twilight 6:47 AM MDT 7:36 PM MDT
Nautical Twilight 6:12 AM MDT 8:11 PM MDT
Astronomical Twilight 5:37 AM MDT 8:46 PM MDT
Moon 12:51 AM MDT (9/28) 3:42 PM MDT (9/28)
Length of Visible Light 12h 49m
Length of Day
11h 50m
Waning Crescent, 35% of the Moon is Illuminated
Sep 28
Waning Crescent
Oct 4
New
Oct 11
First Quarter
Oct 18
Full
Oct 26
Last Quarter

Hourly Weather History & Observations

Time (MDT) Temp. Dew Point Humidity Pressure Visibility Wind Dir Wind Speed Gust Speed Precip Events Conditions
12:53 AM 48.0 °F 26.1 °F 42% 29.89 in 10.0 mi SW 28.8 mph 38.0 mph N/A   Overcast
1:53 AM 48.0 °F 26.1 °F 42% 29.88 in 10.0 mi SW 25.3 mph 35.7 mph N/A   Partly Cloudy
2:53 AM 48.9 °F 27.0 °F 43% 29.88 in 10.0 mi West 15.0 mph 21.9 mph N/A   Overcast
3:53 AM 50.0 °F 27.0 °F 41% 29.87 in 10.0 mi West 18.4 mph 31.1 mph N/A   Overcast
4:53 AM 48.9 °F 28.0 °F 44% 29.88 in 10.0 mi SW 27.6 mph 35.7 mph N/A   Mostly Cloudy
5:53 AM 48.0 °F 30.0 °F 50% 29.88 in 10.0 mi WSW 13.8 mph 23.0 mph N/A   Mostly Cloudy
6:53 AM 48.9 °F 28.9 °F 46% 29.89 in 10.0 mi WSW 19.6 mph 31.1 mph N/A   Overcast
7:53 AM 50.0 °F 30.0 °F 46% 29.91 in 10.0 mi West 24.2 mph 33.4 mph N/A   Mostly Cloudy
8:53 AM 50.0 °F 30.9 °F 48% 29.91 in 10.0 mi WSW 19.6 mph 36.8 mph N/A   Clear
9:53 AM 52.0 °F 30.9 °F 45% 29.89 in 10.0 mi SW 35.7 mph 43.7 mph N/A   Mostly Cloudy
10:53 AM 55.9 °F 30.9 °F 39% 29.88 in 10.0 mi SW 35.7 mph 48.3 mph N/A   Scattered Clouds
11:53 AM 55.9 °F 30.9 °F 39% 29.89 in 10.0 mi SW 23.0 mph 43.7 mph N/A   Overcast
12:53 PM 59.0 °F 33.1 °F 38% 29.86 in 10.0 mi SW 26.5 mph 39.1 mph N/A   Overcast
1:53 PM 62.1 °F 33.1 °F 34% 29.84 in 10.0 mi SW 35.7 mph 43.7 mph N/A   Overcast
2:53 PM 57.9 °F 33.1 °F 39% 29.84 in 10.0 mi SW 38.0 mph 50.6 mph N/A   Overcast
3:53 PM 60.1 °F 33.1 °F 36% 29.83 in 10.0 mi SW 34.5 mph 43.7 mph N/A   Mostly Cloudy
4:53 PM 60.1 °F 33.1 °F 36% 29.83 in 10.0 mi SW 34.5 mph 54.1 mph N/A   Scattered Clouds
5:53 PM 59.0 °F 32.0 °F 36% 29.82 in 10.0 mi SW 35.7 mph 49.5 mph N/A   Clear
6:53 PM 57.9 °F 30.9 °F 36% 29.82 in 10.0 mi SW 28.8 mph 43.7 mph N/A   Clear
7:53 PM 57.9 °F 30.9 °F 36% 29.79 in 10.0 mi SW 33.4 mph 50.6 mph N/A   Clear
8:53 PM 57.0 °F 32.0 °F 39% 29.78 in 10.0 mi SW 38.0 mph 57.5 mph N/A   Clear
9:53 PM 57.0 °F 33.1 °F 40% 29.78 in 10.0 mi SW 39.1 mph 51.8 mph N/A   Clear
10:53 PM 57.9 °F 32.0 °F 37% 29.75 in 10.0 mi SW 41.4 mph 51.8 mph N/A   Scattered Clouds
11:53 PM 57.0 °F 32.0 °F 39% 29.71 in 10.0 mi SW 39.1 mph 57.5 mph N/A   Partly Cloudy